FW5262 Weather Reports


time (UTC)temp
C
wind
direction
speed
KPH
gust
KPH
rain 1hr
cm
rain 24hr
cm
rain mn
cm
humidity
%
barometer
mb
20260507044451 13 0 6.4 14.5 0.00 0.00 0.00 76 946.2
20260507043950 13 65 8.0 14.5 0.00 0.00 0.00 75 946.0
20260507043449 13 67 8.0 16.1 0.00 0.00 0.00 75 946.0
20260507042951 13 69 8.0 16.1 0.00 0.00 0.00 75 946.0
20260507042450 13 49 8.0 17.7 0.00 0.00 0.00 75 946.0
20260507041949 13 56 9.7 17.7 0.00 0.00 0.00 75 946.1
20260507041443 13 81 8.0 17.7 0.00 0.00 0.00 75 945.9
20260507040938 13 32 8.0 16.1 0.00 0.00 0.00 76 945.9
20260507040432 13 15 8.0 17.7 0.00 0.00 0.00 76 945.9
20260507035926 13 15 9.7 19.3 0.00 0.00 0.00 76 945.8
20260507035420 13 48 9.7 19.3 0.00 0.00 0.00 76 945.7
20260507035153 13 62 8.0 16.1 0.00 0.00 0.00 76 945.6
20260507034638 13 39 8.0 17.7 0.00 0.00 0.00 76 945.6
20260507033902 13 39 8.0 17.7 0.00 0.00 0.00 76 945.6
20260507033356 13 52 8.0 16.1 0.00 0.00 0.00 75 945.7
20260507032850 13 23 8.0 16.1 0.00 0.00 0.00 75 945.6
20260507032614 13 39 8.0 16.1 0.00 0.00 0.00 75 945.6
20260507031837 14 61 8.0 17.7 0.00 0.00 0.00 75 945.7
20260507031332 14 46 8.0 19.3 0.00 0.00 0.00 75 945.4
20260507030827 14 38 8.0 19.3 0.00 0.00 0.00 74 945.4
20260507030822 14 65 8.0 17.7 0.00 0.00 0.00 74 945.5
20260507025814 14 46 8.0 14.5 0.00 0.00 0.00 74 945.4
20260507025308 14 30 8.0 16.1 0.00 0.00 0.00 74 945.3
20260507024802 14 42 8.0 16.1 0.00 0.00 0.00 74 945.4
20260507024255 14 55 6.4 16.1 0.00 0.00 0.00 74 945.2
20260507023749 14 54 6.4 16.1 0.00 0.00 0.00 74 945.1
20260507023244 14 28 6.4 16.1 0.00 0.00 0.00 74 945.1
20260507022738 14 22 6.4 12.9 0.00 0.00 0.00 74 945.2
20260507022231 14 34 4.8 12.9 0.00 0.00 0.00 74 945.2
20260507021726 14 11 4.8 9.7 0.00 0.00 0.00 73 945.0
20260507021220 15 41 4.8 12.9 0.00 0.00 0.00 73 944.9
20260507020714 15 0 4.8 12.9 0.00 0.00 0.00 72 944.8
20260507020438 15 9 4.8 12.9 0.00 0.00 0.00 71 944.8
20260507015702 15 39 4.8 12.9 0.00 0.00 0.00 70 944.9
20260507015155 15 26 6.4 12.9 0.00 0.00 0.00 70 944.8
20260507014650 15 55 6.4 14.5 0.00 0.00 0.00 70 944.7
20260507014143 16 62 6.4 14.5 0.00 0.00 0.00 69 944.8
20260507013638 16 38 6.4 12.9 0.00 0.00 0.00 69 944.7
20260507013132 16 44 6.4 12.9 0.00 0.00 0.00 68 944.7
20260507012626 16 50 6.4 14.5 0.00 0.00 0.00 67 944.7
20260507012119 16 40 9.7 19.3 0.00 0.00 0.00 67 944.6
20260507011614 16 59 9.7 19.3 0.00 0.00 0.00 66 944.4
20260507011339 17 43 8.0 16.1 0.00 0.00 0.00 66 944.4
20260507010601 17 63 8.0 16.1 0.00 0.00 0.00 65 944.4
20260507010056 17 61 8.0 16.1 0.00 0.00 0.00 64 944.4
20260507005550 17 12 8.0 19.3 0.00 0.00 0.00 64 944.5
20260507005044 17 55 9.7 20.9 0.00 0.00 0.00 63 944.3
20260507004538 18 5 11.3 20.9 0.00 0.00 0.00 62 944.3
20260507004032 18 34 11.3 22.5 0.00 0.00 0.00 61 944.2
20260507003526 18 13 9.7 20.9 0.00 0.00 0.00 62 944.1
20260507003019 18 39 11.3 24.1 0.00 0.00 0.00 61 944.1
20260507003013 19 338 11.3 20.9 0.00 0.00 0.00 61 944.0
20260507002614 19 47 11.3 24.1 0.00 0.00 0.00 61 944.0
20260507001732 19 327 9.7 19.3 0.00 0.00 0.00 61 944.0
20260507000956 19 9 8.0 17.7 0.00 0.00 0.00 62 944.0
20260507000720 19 12 9.7 22.5 0.00 0.00 0.00 60 943.9
20260506235944 19 350 11.3 22.5 0.00 0.00 0.00 59 943.8
20260506235437 19 0 11.3 20.9 0.00 0.00 0.00 59 943.9
20260506234932 19 13 11.3 20.9 0.00 0.00 0.00 59 943.8
20260506234426 20 349 11.3 20.9 0.00 0.00 0.00 57 943.8
20260506233920 20 355 11.3 22.5 0.00 0.00 0.00 57 943.8
20260506233413 20 13 12.9 22.5 0.00 0.00 0.00 55 943.8
20260506232908 20 349 11.3 17.7 0.00 0.00 0.00 56 943.8
20260506232632 20 0 11.3 19.3 0.00 0.00 0.00 57 943.8
20260506231856 20 313 11.3 20.9 0.00 0.00 0.00 55 943.7
20260506231622 20 15 11.3 20.9 0.00 0.00 0.00 56 943.6
20260506230844 20 335 11.3 19.3 0.00 0.00 0.00 56 943.6
20260506230610 20 343 11.3 19.3 0.00 0.00 0.00 55 943.5
20260506225831 20 355 11.3 19.3 0.00 0.00 0.00 56 943.5
20260506225326 20 349 9.7 19.3 0.00 0.00 0.00 54 943.4
20260506224820 21 348 9.7 17.7 0.00 0.00 0.00 55 943.4
20260506224314 21 340 9.7 17.7 0.00 0.00 0.00 55 943.2
20260506224309 21 349 11.3 20.9 0.00 0.00 0.00 55 943.2
20260506223532 21 17 11.3 20.9 0.00 0.00 0.00 53 943.1
20260506222756 21 0 11.3 19.3 0.00 0.00 0.00 53 943.1
20260506222255 21 336 8.0 17.7 0.00 0.00 0.00 51 943.0
20260506221755 22 329 8.0 16.1 0.00 0.00 0.00 55 942.9
20260506221256 22 0 8.0 16.1 0.00 0.00 0.00 50 942.9
20260506220802 22 335 9.7 19.3 0.00 0.00 0.00 51 942.8
20260506220757 22 348 9.7 19.3 0.00 0.00 0.00 50 942.9
20260506215753 22 339 8.0 16.1 0.00 0.00 0.00 53 942.9
20260506215258 22 340 8.0 14.5 0.00 0.00 0.00 52 943.0
20260506215252 22 339 8.0 16.1 0.00 0.00 0.00 51 942.8
20260506214252 22 44 8.0 17.7 0.00 0.00 0.00 50 943.0
20260506213753 22 323 8.0 17.7 0.00 0.00 0.00 52 943.1
20260506213254 22 342 9.7 19.3 0.00 0.00 0.00 52 943.1
20260506212753 22 348 9.7 19.3 0.00 0.00 0.00 51 943.1
20260506212254 22 41 8.0 17.7 0.00 0.00 0.00 52 943.1
20260506211748 22 355 8.0 16.1 0.00 0.00 0.00 51 943.1
20260506211254 22 11 8.0 16.1 0.00 0.00 0.00 52 943.2
20260506211248 22 322 8.0 16.1 0.00 0.00 0.00 54 943.2
20260506210250 22 334 8.0 17.7 0.00 0.00 0.00 55 943.4
20260506210019 22 49 8.0 17.7 0.00 0.00 0.00 52 943.3
20260506205249 22 298 8.0 16.1 0.00 0.00 0.00 55 943.4
20260506205030 22 347 8.0 16.1 0.00 0.00 0.00 54 943.5
20260506204520 22 331 6.4 16.1 0.00 0.00 0.00 53 943.5
20260506203750 22 32 6.4 12.9 0.00 0.00 0.00 55 943.7
20260506203249 22 350 8.0 16.1 0.00 0.00 0.00 55 943.6
20260506202750 22 325 8.0 16.1 0.00 0.00 0.00 53 943.6
20260506202249 21 342 6.4 16.1 0.00 0.00 0.00 55 943.7
20260506201748 21 36 4.8 16.1 0.00 0.00 0.00 55 943.6
20260506201250 21 355 4.8 14.5 0.00 0.00 0.00 55 943.7
20260506200748 21 300 8.0 17.7 0.00 0.00 0.00 56 943.9
20260506200520 21 12 8.0 17.7 0.00 0.00 0.00 58 943.9
20260506195750 21 313 8.0 16.1 0.00 0.00 0.00 60 944.0
20260506195520 21 9 9.7 19.3 0.00 0.00 0.00 57 944.0
20260506195013 20 287 9.7 19.3 0.00 0.00 0.00 56 944.0
20260506194236 20 292 8.0 19.3 0.00 0.00 0.00 61 944.1
20260506193731 20 308 6.4 12.9 0.00 0.00 0.00 59 944.1
20260506193457 19 19 8.0 17.7 0.00 0.00 0.00 63 944.1
20260506192719 20 306 9.7 17.7 0.00 0.00 0.00 59 944.2
20260506192213 19 39 8.0 17.7 0.00 0.00 0.00 61 944.2
20260506191707 19 9 9.7 17.7 0.00 0.00 0.00 59 944.2
20260506191201 18 346 9.7 20.9 0.00 0.00 0.00 61 944.3
20260506190926 18 322 9.7 20.9 0.00 0.00 0.00 61 944.4
20260506190149 18 10 11.3 19.3 0.00 0.00 0.00 64 944.5
20260506185642 18 306 9.7 19.3 0.00 0.00 0.00 63 944.7
20260506185137 18 331 9.7 16.1 0.00 0.00 0.00 64 944.7
20260506184630 18 20 9.7 22.5 0.00 0.00 0.00 63 944.7
20260506184125 18 349 11.3 22.5 0.00 0.00 0.00 64 944.7
20260506183619 17 293 11.3 20.9 0.00 0.00 0.00 67 944.9
20260506183112 17 306 11.3 22.5 0.00 0.00 0.00 65 944.9
20260506182607 17 287 12.9 22.5 0.00 0.00 0.00 65 944.9
20260506182101 17 315 11.3 22.5 0.00 0.00 0.00 64 945.0
20260506181554 17 306 11.3 20.9 0.00 0.00 0.00 66 945.0
20260506181049 17 309 12.9 22.5 0.00 0.00 0.00 66 945.0
20260506180543 17 303 12.9 24.1 0.00 0.00 0.00 66 945.2
20260506180036 17 344 12.9 24.1 0.00 0.00 0.00 67 945.3
20260506175530 17 301 14.5 24.1 0.00 0.00 0.00 69 945.3
20260506175025 16 317 12.9 25.7 0.00 0.00 0.00 68 945.3
20260506174519 16 306 11.3 25.7 0.00 0.00 0.00 69 945.2
20260506174012 16 15 12.9 20.9 0.00 0.00 0.00 72 945.3
20260506173507 15 32 11.3 19.3 0.00 0.00 0.00 72 945.3
20260506173001 15 26 11.3 19.3 0.00 0.00 0.00 73 945.3
20260506172455 14 18 11.3 20.9 0.00 0.00 0.00 75 945.2
20260506171949 14 338 11.3 20.9 0.00 0.00 0.00 74 945.3
20260506171443 14 342 11.3 20.9 0.00 0.00 0.00 74 945.5
20260506170937 13 0 11.3 20.9 0.00 0.00 0.00 77 945.4
20260506170431 13 16 11.3 19.3 0.00 0.00 0.00 78 945.5
20260506165925 13 326 14.5 25.7 0.00 0.00 0.00 76 945.6
20260506165418 13 21 12.9 25.7 0.00 0.00 0.00 76 945.4
20260506164913 13 336 11.3 20.9 0.00 0.00 0.00 77 945.4
20260506164637 13 350 14.5 20.9 0.00 0.00 0.00 78 945.5
20260506163901 13 355 16.1 24.1 0.00 0.00 0.00 77 945.5
20260506163627 13 326 16.1 25.7 0.00 0.00 0.00 77 945.4
20260506162849 13 332 14.5 25.7 0.00 0.00 0.00 79 945.4
20260506162343 12 315 14.5 24.1 0.00 0.00 0.00 78 945.3
20260506161836 12 342 16.1 27.4 0.00 0.00 0.00 80 945.2
20260506161331 12 350 19.3 30.6 0.00 0.00 0.00 79 945.1
20260506160824 12 15 19.3 30.6 0.00 0.00 0.00 79 945.0
20260506160318 12 340 19.3 29.0 0.00 0.00 0.00 79 944.9
20260506160043 12 14 19.3 32.2 0.00 0.00 0.00 79 944.9
20260506155307 12 343 17.7 32.2 0.00 0.00 0.00 78 944.8
20260506154800 12 306 16.1 25.7 0.00 0.00 0.00 79 944.8
20260506154254 12 355 14.5 29.0 0.00 0.00 0.00 79 944.7
20260506153749 12 334 16.1 33.8 0.00 0.00 0.00 81 944.7
20260506153242 12 335 19.3 33.8 0.00 0.00 0.00 80 944.5
20260506152736 12 327 19.3 33.8 0.00 0.00 0.00 81 944.4
20260506152230 12 331 20.9 33.8 0.00 0.00 0.00 80 944.6
20260506151725 12 13 20.9 32.2 0.00 0.00 0.00 81 944.6
20260506151219 12 350 20.9 33.8 0.00 0.00 0.00 80 944.7
20260506150943 12 327 20.9 35.4 0.00 0.00 0.00 80 944.6
20260506150206 12 19 24.1 37.0 0.00 0.00 0.00 80 944.3
20260506145700 12 0 24.1 40.2 0.00 0.00 0.00 80 944.2
20260506145425 12 309 20.9 40.2 0.00 0.00 0.00 79 944.3
20260506144649 12 344 20.9 37.0 0.00 0.00 0.00 82 944.1
20260506144142 12 331 20.9 37.0 0.00 0.00 0.00 82 944.0
20260506143636 11 342 17.7 30.6 0.00 0.00 0.00 84 944.0
20260506143131 11 309 17.7 32.2 0.00 0.00 0.00 83 944.1
20260506142624 11 349 19.3 32.2 0.00 0.00 0.00 84 944.3
20260506142119 11 0 19.3 32.2 0.00 0.00 0.00 84 944.3
20260506141613 11 337 16.1 32.2 0.00 0.00 0.00 83 944.4
20260506141107 11 322 14.5 27.4 0.00 0.00 0.00 84 944.4
20260506140608 11 0 14.5 29.0 0.00 0.00 0.00 84 944.6
20260506140107 11 21 14.5 29.0 0.00 0.00 0.00 84 944.6
20260506135844 11 342 16.1 25.7 0.00 0.00 0.00 84 944.3
20260506135108 11 15 16.1 25.7 0.00 0.00 0.00 84 944.2
20260506134607 11 28 14.5 25.7 0.00 0.00 0.00 85 944.5
20260506134109 11 26 12.9 25.7 0.00 0.00 0.00 84 944.6
20260506133608 11 0 12.9 25.7 0.00 0.00 0.00 85 944.7
20260506133108 11 17 12.9 25.7 0.00 0.00 0.00 85 945.0
20260506132608 11 340 11.3 20.9 0.00 0.00 0.00 85 944.8
20260506132109 11 5 12.9 22.5 0.00 0.00 0.00 84 944.8
20260506131607 11 343 12.9 22.5 0.00 0.00 0.00 85 944.2
20260506131105 11 11 16.1 25.7 0.00 0.00 0.00 85 944.0
20260506130836 11 355 16.1 25.7 0.00 0.00 0.00 85 943.9
20260506130107 11 343 14.5 25.7 0.00 0.00 0.00 85 943.8
20260506125605 11 28 12.9 20.9 0.00 0.00 0.00 85 943.9
20260506125103 11 14 11.3 19.3 0.00 0.00 0.00 85 944.1
20260506124603 11 11 11.3 19.3 0.00 0.00 0.00 85 944.2
20260506124104 11 18 12.9 27.4 0.00 0.00 0.00 86 944.2
20260506123610 11 0 14.5 20.9 0.00 0.00 0.00 86 943.5
20260506123605 11 30 14.5 27.4 0.00 0.00 0.00 85 943.6
20260506122605 11 333 12.9 20.9 0.00 0.00 0.00 86 943.8
20260506122104 11 344 9.7 19.3 0.00 0.00 0.00 87 943.6
20260506121605 11 22 8.0 16.1 0.00 0.00 0.00 87 943.5
20260506121059 11 351 8.0 16.1 0.00 0.00 0.00 87 943.5
20260506120600 11 0 8.0 17.7 0.00 0.00 0.00 87 943.5
20260506120059 11 24 9.7 22.5 0.00 0.00 0.00 86 943.6
20260506115600 11 37 12.9 22.5 0.00 0.00 0.00 86 942.8
20260506115059 11 345 14.5 22.5 0.00 0.00 0.00 85 942.8
20260506114832 11 350 11.3 22.5 0.00 0.00 0.00 85 942.7
20260506114113 11 0 11.3 20.9 0.00 0.00 0.00 86 942.2
20260506114103 11 342 11.3 20.9 0.00 0.00 0.00 86 942.5
20260506113335 11 11 11.3 17.7 0.00 0.00 0.00 86 942.1
20260506112556 11 9 11.3 19.3 0.00 0.00 0.00 86 942.3
20260506112050 11 22 9.7 19.3 0.00 0.00 0.00 86 942.3
20260506111815 11 355 12.9 25.7 0.00 0.00 0.00 86 942.3
20260506111310 10 351 12.9 25.7 0.00 0.00 0.00 86 942.2
20260506110536 11 21 12.9 20.9 0.00 0.00 0.00 86 941.9
20260506110034 11 351 11.3 20.9 0.00 0.00 0.00 86 942.1
20260506105533 11 342 12.9 24.1 0.00 0.00 0.00 86 942.1
20260506105033 11 347 14.5 24.1 0.00 0.00 0.00 86 942.0
20260506104534 11 12 16.1 25.7 0.00 0.00 0.00 86 942.0
20260506104309 11 355 14.5 25.7 0.00 0.00 0.00 86 941.9
20260506103533 11 355 11.3 24.1 0.00 0.00 0.00 86 941.9
20260506103034 11 324 11.3 22.5 0.00 0.00 0.00 87 942.0
20260506102806 11 343 11.3 25.7 0.00 0.00 0.00 87 942.0
20260506102046 11 319 12.9 22.5 0.00 0.00 0.00 87 941.8
20260506102034 11 9 14.5 25.7 0.00 0.00 0.00 87 941.7
20260506101033 10 351 11.3 20.9 0.00 0.00 0.00 88 941.8
20260506100533 10 334 8.0 17.7 0.00 0.00 0.00 87 941.9
20260506100033 10 14 9.7 16.1 0.00 0.00 0.00 87 941.8
20260506095534 10 336 9.7 16.1 0.00 0.00 0.00 87 941.6
20260506095033 10 9 9.7 16.1 0.00 0.00 0.00 87 941.5
20260506094804 11 318 9.7 16.1 0.00 0.00 0.00 87 941.4
20260506094028 11 325 9.7 17.7 0.00 0.00 0.00 87 941.3
20260506093522 11 342 9.7 17.7 0.00 0.00 0.00 86 941.1
20260506093017 11 10 11.3 17.7 0.00 0.00 0.00 87 940.9
20260506092509 11 348 11.3 19.3 0.00 0.00 0.00 86 940.9
20260506092003 11 351 9.7 19.3 0.00 0.00 0.00 86 940.9
20260506091457 11 338 9.7 16.1 0.00 0.00 0.00 86 941.1
20260506091222 11 350 9.7 16.1 0.00 0.00 0.00 86 941.2
20260506090446 11 11 9.7 17.7 0.00 0.00 0.00 85 941.1
20260506085939 11 18 11.3 19.3 0.00 0.00 0.00 85 941.0
20260506085434 11 36 9.7 19.3 0.00 0.00 0.00 85 941.0
20260506084927 11 5 8.0 16.1 0.00 0.00 0.00 85 941.0
20260506084422 11 344 8.0 16.1 0.00 0.00 0.00 85 941.0
20260506083915 11 350 9.7 19.3 0.00 0.00 0.00 85 941.2
20260506083410 11 334 9.7 19.3 0.00 0.00 0.00 85 941.1
20260506082903 11 338 11.3 17.7 0.00 0.00 0.00 85 941.0
20260506082357 11 0 12.9 24.1 0.00 0.00 0.00 85 940.9
20260506081852 11 22 12.9 24.1 0.00 0.00 0.00 85 941.0
20260506081618 12 329 11.3 20.9 0.00 0.00 0.00 84 941.0
20260506080839 12 13 9.7 17.7 0.00 0.00 0.00 84 940.9
20260506080334 12 0 9.7 17.7 0.00 0.00 0.00 84 940.8
20260506073257 12 15 8.0 16.1 0.00 0.00 0.00 82 941.2
20260506073023 12 348 8.0 16.1 0.00 0.00 0.00 82 941.1
20260506072246 12 0 9.7 20.9 0.00 0.00 0.00 82 941.1
20260506071742 12 344 9.7 20.9 0.00 0.00 0.00 82 941.1
20260506071243 12 26 9.7 17.7 0.00 0.00 0.00 82 941.2
20260506070742 13 17 8.0 16.1 0.00 0.00 0.00 81 941.0
20260506070518 13 39 8.0 16.1 0.00 0.00 0.00 81 940.9
20260506062242 13 11 11.3 19.3 0.00 0.00 0.00 78 940.8
20260506061743 14 346 11.3 20.9 0.00 0.00 0.00 78 940.7
20260506061243 14 0 9.7 20.9 0.00 0.00 0.00 77 940.6
20260506060752 14 30 9.7 19.3 0.00 0.00 0.00 76 940.7
20260506060743 14 9 9.7 19.3 0.00 0.00 0.00 77 940.9
20260506051227 16 35 6.4 17.7 0.00 0.00 0.00 71 939.8
20260506050725 16 23 9.7 17.7 0.00 0.00 0.00 70 939.7
20260506050226 16 19 9.7 17.7 0.00 0.00 0.00 69 939.7